Radiation Dose at Monitoring Post of Fukushima Daini Nuclear Power Station
Date,Time,MP-1(microSv/h),MP-2(microSv/h),MP-3(microSv/h),MP-4(microSv/h),MP-5(microSv/h),MP-6(microSv/h),MP-7(microSv/h),Wind Direction,Wind Velocity(m/s),Rain
2022/05/13,00:00,0.152,0.143,0.225,0.217,0.220,0.122,0.078,south,5.8,No
2022/05/13,00:10,0.153,0.141,0.223,0.218,0.222,0.122,0.077,south,6.6,No
2022/05/13,00:20,0.152,0.143,0.226,0.218,0.220,0.121,0.078,south,5.9,Yes
2022/05/13,00:30,0.154,0.142,0.224,0.218,0.221,0.122,0.078,south,6.0,Yes
2022/05/13,00:40,0.153,0.143,0.225,0.220,0.221,0.122,0.078,south,6.2,Yes
2022/05/13,00:50,0.153,0.143,0.225,0.218,0.221,0.123,0.078,south,5.2,Yes
2022/05/13,01:00,0.153,0.142,0.226,0.219,0.221,0.122,0.079,south,5.9,Yes
2022/05/13,01:10,0.153,0.143,0.225,0.217,0.221,0.122,0.078,south-southwest,5.7,Yes
2022/05/13,01:20,0.153,0.143,0.226,0.220,0.221,0.121,0.078,south,5.8,Yes
2022/05/13,01:30,0.153,0.142,0.225,0.218,0.220,0.122,0.078,south,4.5,Yes
2022/05/13,01:40,0.153,0.141,0.225,0.220,0.221,0.122,0.078,south,4.5,Yes
2022/05/13,01:50,0.153,0.142,0.225,0.218,0.219,0.122,0.078,south,4.9,Yes
2022/05/13,02:00,0.154,0.142,0.227,0.220,0.222,0.122,0.079,south,4.2,Yes
2022/05/13,02:10,0.153,0.142,0.224,0.218,0.220,0.122,0.078,south,3.3,Yes
2022/05/13,02:20,0.154,0.143,0.224,0.219,0.223,0.122,0.078,south,3.8,Yes
2022/05/13,02:30,0.153,0.143,0.225,0.218,0.220,0.122,0.078,south,3.4,Yes
2022/05/13,02:40,0.154,0.143,0.228,0.219,0.223,0.123,0.080,south-southwest,3.4,Yes
2022/05/13,02:50,0.155,0.144,0.226,0.218,0.221,0.122,0.079,south-southwest,3.2,Yes
2022/05/13,03:00,0.154,0.144,0.228,0.220,0.223,0.124,0.079,south-southwest,3.2,Yes
2022/05/13,03:10,0.155,0.144,0.227,0.219,0.221,0.124,0.080,south-southwest,2.6,Yes
2022/05/13,03:20,0.156,0.144,0.227,0.220,0.224,0.126,0.081,south-southwest,2.7,Yes
2022/05/13,03:30,0.156,0.146,0.226,0.219,0.222,0.124,0.081,southwest,2.7,Yes
2022/05/13,03:40,0.154,0.144,0.226,0.220,0.223,0.126,0.081,south-southwest,2.4,Yes
2022/05/13,03:50,0.154,0.145,0.224,0.218,0.221,0.125,0.081,south-southwest,2.2,Yes
2022/05/13,04:00,0.156,0.144,0.225,0.218,0.223,0.125,0.081,south-southwest,3.0,Yes
2022/05/13,04:10,0.155,0.145,0.223,0.217,0.221,0.125,0.081,south-southwest,3.7,Yes
2022/05/13,04:20,0.155,0.144,0.224,0.219,0.223,0.125,0.081,south-southwest,4.0,Yes
2022/05/13,04:30,0.156,0.144,0.223,0.215,0.220,0.124,0.082,south-southwest,3.8,Yes
2022/05/13,04:40,0.155,0.144,0.224,0.217,0.221,0.123,0.081,south,3.0,Yes
2022/05/13,04:50,0.154,0.144,0.221,0.215,0.221,0.124,0.081,south-southwest,3.9,Yes
2022/05/13,05:00,0.152,0.143,0.222,0.217,0.221,0.124,0.080,south-southwest,4.5,Yes
2022/05/13,05:10,0.154,0.143,0.222,0.215,0.219,0.124,0.080,south,5.3,Yes
2022/05/13,05:20,0.153,0.143,0.221,0.215,0.220,0.122,0.081,south,5.2,Yes
2022/05/13,05:30,0.153,0.143,0.220,0.215,0.219,0.123,0.080,south-southwest,5.0,Yes
2022/05/13,05:40,0.152,0.142,0.220,0.214,0.220,0.122,0.080,south-southwest,4.9,Yes
2022/05/13,05:50,0.152,0.142,0.221,0.214,0.219,0.122,0.079,south,4.9,Yes
2022/05/13,06:00,0.152,0.143,0.220,0.214,0.218,0.121,0.079,south,5.0,Yes
2022/05/13,06:10,0.152,0.141,0.220,0.213,0.218,0.122,0.078,south-southwest,5.4,Yes
2022/05/13,06:20,0.152,0.143,0.219,0.215,0.219,0.122,0.079,south-southwest,5.6,Yes
2022/05/13,06:30,0.152,0.141,0.220,0.213,0.217,0.122,0.078,south-southwest,5.6,Yes
2022/05/13,06:40,0.151,0.143,0.219,0.214,0.218,0.121,0.078,south,5.3,Yes
2022/05/13,06:50,0.152,0.141,0.221,0.212,0.218,0.121,0.079,south,5.2,Yes
2022/05/13,07:00,0.152,0.142,0.218,0.214,0.217,0.120,0.078,south-southeast,6.1,Yes
2022/05/13,07:10,0.152,0.140,0.219,0.212,0.218,0.121,0.078,south-southeast,5.7,Yes
2022/05/13,07:20,0.151,0.142,0.218,0.213,0.218,0.120,0.078,south-southeast,5.9,Yes
2022/05/13,07:30,0.152,0.140,0.219,0.211,0.218,0.121,0.078,south-southeast,5.8,Yes
2022/05/13,07:40,0.150,0.141,0.218,0.213,0.218,0.121,0.078,south,5.3,Yes
2022/05/13,07:50,0.151,0.141,0.220,0.212,0.219,0.120,0.077,south,4.7,Yes
2022/05/13,08:00,0.150,0.141,0.217,0.213,0.218,0.120,0.078,south,4.4,Yes
2022/05/13,08:10,0.150,0.139,0.218,0.210,0.219,0.120,0.076,south,4.3,Yes
2022/05/13,08:20,0.149,0.141,0.218,0.212,0.215,0.120,0.077,south,4.0,Yes
2022/05/13,08:30,0.150,0.139,0.220,0.210,0.218,0.120,0.077,south-southwest,3.6,Yes
2022/05/13,08:40,0.150,0.140,0.217,0.213,0.216,0.120,0.077,south-southwest,2.7,Yes
2022/05/13,08:50,0.149,0.139,0.219,0.211,0.218,0.119,0.077,south-southwest,2.6,Yes
2022/05/13,09:00,0.151,0.140,0.216,0.212,0.216,0.120,0.076,south-southwest,3.3,Yes
2022/05/13,09:10,0.149,0.140,0.218,0.210,0.217,0.120,0.078,south,2.7,Yes
2022/05/13,09:20,0.151,0.140,0.217,0.212,0.217,0.119,0.077,south-southeast,3.2,Yes
2022/05/13,09:30,0.150,0.140,0.218,0.212,0.216,0.121,0.077,south-southeast,3.2,Yes
2022/05/13,09:40,0.150,0.140,0.217,0.212,0.219,0.120,0.077,south-southeast,4.0,Yes
2022/05/13,09:50,0.150,0.140,0.217,0.211,0.216,0.121,0.077,south-southeast,4.3,Yes
2022/05/13,10:00,0.149,0.140,0.217,0.210,0.218,0.120,0.077,south-southeast,4.3,Yes
2022/05/13,10:10,0.150,0.140,0.216,0.211,0.217,0.121,0.077,south-southeast,4.2,Yes
2022/05/13,10:20,0.149,0.139,0.218,0.210,0.217,0.119,0.077,south-southeast,4.5,Yes
2022/05/13,10:30,0.150,0.140,0.217,0.212,0.216,0.120,0.077,south-southeast,5.3,Yes
2022/05/13,10:40,0.149,0.139,0.217,0.210,0.216,0.119,0.076,south-southeast,4.8,Yes
2022/05/13,10:50,0.150,0.139,0.215,0.213,0.217,0.119,0.077,south-southeast,4.4,Yes
2022/05/13,11:00,0.148,0.139,0.216,0.210,0.215,0.120,0.077,south-southeast,4.4,Yes
2022/05/13,11:10,0.148,0.139,0.217,0.210,0.217,0.119,0.076,south-southeast,4.6,No
2022/05/13,11:20,0.149,0.139,0.214,0.210,0.215,0.119,0.076,south-southeast,5.3,No
2022/05/13,11:30,0.148,0.138,0.216,0.209,0.213,0.119,0.077,south-southeast,4.6,Yes
2022/05/13,11:40,0.150,0.140,0.214,0.210,0.216,0.119,0.075,south-southeast,4.5,Yes
2022/05/13,11:50,0.150,0.138,0.215,0.212,0.217,0.119,0.076,south-southeast,4.0,Yes
2022/05/13,12:00,0.149,0.138,0.217,0.210,0.215,0.118,0.076,south-southeast,3.2,Yes
2022/05/13,12:10,0.148,0.139,0.215,0.209,0.215,0.119,0.075,south-southeast,2.8,Yes
2022/05/13,12:20,0.149,0.139,0.216,0.212,0.218,0.119,0.076,south-southeast,1.7,Yes
2022/05/13,12:30,0.149,0.140,0.217,0.209,0.216,0.119,0.076,south-southeast,1.4,Yes
2022/05/13,12:40,0.151,0.140,0.217,0.210,0.219,0.119,0.077,south-southeast,1.7,Yes
2022/05/13,12:50,0.149,0.139,0.217,0.210,0.216,0.120,0.077,south-southeast,1.7,Yes
2022/05/13,13:00,0.149,0.139,0.216,0.210,0.218,0.120,0.077,south,1.0,Yes
2022/05/13,13:10,0.149,0.139,0.219,0.211,0.218,0.120,0.076,south-southeast,1.3,Yes
2022/05/13,13:20,0.149,0.139,0.216,0.210,0.216,0.119,0.077,east,1.0,Yes
2022/05/13,13:30,0.150,0.140,0.218,0.212,0.219,0.120,0.076,east,0.7,Yes
2022/05/13,13:40,0.150,0.140,0.217,0.210,0.217,0.120,0.077,east-southeast,0.7,Yes
2022/05/13,13:50,0.151,0.139,0.215,0.211,0.217,0.119,0.077,northeast,0.8,Yes
2022/05/13,14:00,0.149,0.140,0.216,0.211,0.216,0.120,0.076,-,CALM,Yes
2022/05/13,14:10,0.150,0.139,0.216,0.209,0.216,0.120,0.077,-,CALM,Yes
2022/05/13,14:20,0.150,0.140,0.217,0.212,0.217,0.120,0.078,-,CALM,Yes
2022/05/13,14:30,0.149,0.139,0.215,0.210,0.214,0.120,0.077,-,CALM,Yes
2022/05/13,14:40,0.150,0.139,0.216,0.211,0.218,0.120,0.076,-,CALM,Yes
2022/05/13,14:50,0.149,0.138,0.215,0.210,0.215,0.120,0.076,-,CALM,Yes
2022/05/13,15:00,0.150,0.140,0.215,0.209,0.216,0.119,0.077,-,CALM,Yes
2022/05/13,15:10,0.149,0.139,0.215,0.210,0.217,0.120,0.077,-,CALM,Yes
2022/05/13,15:20,0.149,0.139,0.216,0.209,0.216,0.119,0.076,-,CALM,Yes
2022/05/13,15:30,0.149,0.139,0.215,0.209,0.217,0.120,0.077,south,0.9,Yes
2022/05/13,15:40,0.149,0.140,0.215,0.208,0.214,0.119,0.077,-,CALM,Yes
2022/05/13,15:50,0.149,0.139,0.216,0.210,0.216,0.120,0.077,-,CALM,Yes
2022/05/13,16:00,0.149,0.139,0.214,0.208,0.215,0.120,0.076,-,CALM,Yes
2022/05/13,16:10,0.149,0.139,0.215,0.209,0.216,0.119,0.076,-,CALM,Yes
2022/05/13,16:20,0.149,0.139,0.215,0.208,0.216,0.119,0.076,-,CALM,Yes
2022/05/13,16:30,0.150,0.139,0.214,0.210,0.216,0.119,0.077,-,CALM,Yes
2022/05/13,16:40,0.148,0.139,0.214,0.208,0.217,0.120,0.076,south-southeast,1.0,Yes
2022/05/13,16:50,0.150,0.137,0.214,0.209,0.214,0.119,0.076,south,1.0,Yes
2022/05/13,17:00,0.148,0.138,0.214,0.209,0.216,0.119,0.076,south,1.0,Yes
2022/05/13,17:10,0.150,0.138,0.215,0.209,0.215,0.118,0.076,south-southeast,0.9,Yes
2022/05/13,17:20,0.148,0.139,0.214,0.210,0.216,0.118,0.077,-,CALM,Yes
2022/05/13,17:30,0.149,0.139,0.215,0.208,0.217,0.119,0.077,south,0.8,Yes
2022/05/13,17:40,0.148,0.138,0.213,0.210,0.215,0.119,0.076,-,CALM,Yes
2022/05/13,17:50,0.150,0.139,0.216,0.210,0.217,0.120,0.077,-,CALM,Yes
2022/05/13,18:00,0.150,0.139,0.215,0.211,0.215,0.120,0.076,south,0.6,Yes
2022/05/13,18:10,0.150,0.140,0.217,0.210,0.218,0.120,0.077,south,0.7,Yes
2022/05/13,18:20,0.149,0.141,0.216,0.212,0.217,0.120,0.078,-,CALM,Yes
2022/05/13,18:30,0.150,0.140,0.217,0.212,0.218,0.121,0.078,-,CALM,Yes
2022/05/13,18:40,0.150,0.141,0.217,0.211,0.218,0.121,0.079,-,CALM,Yes
2022/05/13,18:50,0.152,0.141,0.218,0.212,0.218,0.121,0.079,-,CALM,Yes
2022/05/13,19:00,0.151,0.141,0.216,0.210,0.219,0.121,0.079,-,CALM,Yes
2022/05/13,19:10,0.152,0.141,0.219,0.212,0.217,0.121,0.079,south-southwest,0.7,Yes
2022/05/13,19:20,0.151,0.142,0.217,0.211,0.219,0.122,0.079,-,CALM,Yes
2022/05/13,19:30,0.152,0.142,0.219,0.212,0.218,0.123,0.079,south,0.9,Yes
2022/05/13,19:40,0.152,0.142,0.218,0.211,0.222,0.122,0.079,south,0.8,Yes
2022/05/13,19:50,0.151,0.142,0.219,0.212,0.219,0.121,0.079,south-southwest,1.0,Yes
2022/05/13,20:00,0.151,0.143,0.218,0.211,0.221,0.122,0.080,south-southwest,1.3,Yes
2022/05/13,20:10,0.153,0.142,0.219,0.213,0.218,0.122,0.080,southwest,0.8,Yes
2022/05/13,20:20,0.152,0.141,0.217,0.210,0.220,0.122,0.078,-,CALM,Yes
2022/05/13,20:30,0.151,0.142,0.218,0.213,0.218,0.122,0.079,north,1.3,Yes
2022/05/13,20:40,0.152,0.141,0.217,0.211,0.218,0.122,0.079,northwest,0.8,Yes
2022/05/13,20:50,0.151,0.141,0.218,0.213,0.219,0.122,0.080,north,1.1,Yes
2022/05/13,21:00,0.150,0.142,0.215,0.211,0.218,0.121,0.079,north-northwest,0.8,Yes
2022/05/13,21:10,0.152,0.141,0.217,0.212,0.217,0.122,0.079,-,CALM,Yes
2022/05/13,21:20,0.151,0.140,0.216,0.212,0.218,0.121,0.079,-,CALM,Yes
2022/05/13,21:30,0.152,0.141,0.218,0.210,0.218,0.121,0.079,north-northeast,0.7,Yes
2022/05/13,21:40,0.150,0.141,0.216,0.211,0.218,0.121,0.080,north-northeast,2.6,Yes
2022/05/13,21:50,0.152,0.141,0.218,0.212,0.220,0.122,0.080,south,2.2,Yes
2022/05/13,22:00,0.151,0.142,0.217,0.212,0.218,0.123,0.080,-,CALM,Yes
2022/05/13,22:10,0.151,0.143,0.219,0.212,0.220,0.122,0.079,-,CALM,Yes
2022/05/13,22:20,0.150,0.142,0.217,0.211,0.218,0.122,0.079,-,CALM,Yes
2022/05/13,22:30,0.151,0.142,0.218,0.212,0.220,0.122,0.080,-,CALM,Yes
2022/05/13,22:40,0.151,0.141,0.217,0.211,0.217,0.122,0.081,-,CALM,Yes
2022/05/13,22:50,0.151,0.141,0.217,0.212,0.220,0.122,0.079,-,CALM,Yes
2022/05/13,23:00,0.151,0.142,0.217,0.211,0.218,0.122,0.080,south-southeast,0.7,Yes
2022/05/13,23:10,0.152,0.142,0.218,0.211,0.220,0.123,0.080,south,1.4,Yes
2022/05/13,23:20,0.152,0.143,0.217,0.213,0.219,0.123,0.080,east-northeast,2.0,Yes
2022/05/13,23:30,0.153,0.142,0.216,0.211,0.219,0.123,0.081,east-northeast,1.0,Yes
2022/05/13,23:40,0.151,0.142,0.218,0.211,0.218,0.123,0.080,east-northeast,1.1,Yes
2022/05/13,23:50,0.151,0.142,0.216,0.212,0.220,0.123,0.081,-,CALM,Yes
